Location: Unspecified
(36.0142°N, 0.0000°E)
Time: 11:38:47
(UTC+00:00)

CZ-6A R/B DEB - Visible Passes

Search period start: 04 April 2026 00:00
Search period end: 14 April 2026 00:00
Orbit: 795 x 1004 km, 88.8° (Epoch: 28 March)

Date Brightness Start Highest point End Pass type
(mag) Time Alt. Az. Time Alt. Az. Time Alt. Az.
4 Apr ? 04:02:41 10° ESE 04:06:08 16° ENE 04:09:30 10° NE visible
5 Apr ? 04:04:45 10° ESE 04:08:41 18° ENE 04:12:31 10° NE visible
6 Apr ? 04:06:55 10° SE 04:11:15 21° ENE 04:15:27 10° NNE visible
7 Apr ? 04:09:10 10° SE 04:13:49 24° E 04:18:19 10° NNE visible
8 Apr ? 04:11:28 10° SE 04:16:23 28° E 04:21:08 10° NNE visible
9 Apr ? 04:13:49 10° SE 04:18:58 32° E 04:23:55 10° NNE visible
10 Apr ? 04:16:14 10° SSE 04:21:34 37° E 04:26:40 10° NNE visible
11 Apr ? 04:18:40 10° SSE 04:24:09 43° E 04:29:23 10° NNE visible
12 Apr ? 04:21:08 10° SSE 04:26:45 50° E 04:32:05 10° N visible
13 Apr ? 04:23:39 10° SSE 04:29:20 58° E 04:34:45 10° N visible
